Louisville Bowman, KY

5:33 PM EDT on April 25, 2017 (GMT -0400)
Bowman

Weather History for KLOU - March, 2013

Change the Weather History Date:

Tuesday, March 26, 2013

  Actual Average Record
Temperature  
Mean Temperature 37 °F 50 °F  
Max Temperature 42 °F 60 °F 82 °F (2007)
Min Temperature 32 °F 40 °F 12 °F (1955)
Degree Days  
Heating Degree Days 28 15  
Month to date heating degree days 660 492  
Since 1 July heating degree days 3890 3853  
Cooling Degree Days 0 0  
Month to date cooling degree days 0 0  
Year to date cooling degree days 0 0  
Moisture  
Dew Point 28 °F    
Average Humidity 67    
Maximum Humidity 89    
Minimum Humidity 45    
Precipitation  
Precipitation 0.01 in 0.15 in 1.25 in (2002)
Month to date precipitation 4.07 3.39  
Year to date precipitation 10.78 9.95  
Sea Level Pressure  
Sea Level Pressure 30.15 in    
Wind  
Wind Speed 9 mph (WNW)    
Max Wind Speed 18 mph    
Max Gust Speed 22 mph    
Visibility 6 miles    
Events Snow    
T = Trace of Precipitation, MM = Missing Value Source: NWS Daily Summary

Daily Weather History Graph

Daily Weather History Graph

Search for Another Location

Airport or City:

Trip Planner

Search our weather history database for the weather conditions in past years. The results will help you decide how hot, cold, wet, or windy it might be!

Date:

Astronomy

Mar. 26, 2013 Rise Set
Actual Time 7:36 AM EDT 8:00 PM EDT
Civil Twilight 7:10 AM EDT 8:26 PM EDT
Nautical Twilight 6:39 AM EDT 8:58 PM EDT
Astronomical Twilight 6:07 AM EDT 9:29 PM EDT
Moon 7:36 PM EDT (3/26) 6:52 AM EDT (3/26)
Length of Visible Light 13h 16m
Length of Day
12h 23m
Waxing Gibbous, 99% of the Moon is Illuminated
Mar 26
Waxing Gibbous
Mar 27
Full
Apr 3
Last Quarter
Apr 10
New
Apr 18
First Quarter

Hourly Weather History & Observations

Time (EDT) Temp. Windchill Dew Point Humidity Pressure Visibility Wind Dir Wind Speed Gust Speed Precip Events Conditions
12:01 AM 33.8 °F 26.4 °F 30.2 °F 87% 30.03 in 2.5 mi WNW 9.2 mph - 0.00 in Snow Light Snow
12:33 AM 33.8 °F 26.4 °F 30.2 °F 87% 30.03 in 3.0 mi West 9.2 mph - 0.00 in Snow Light Snow
12:53 AM 33.1 °F 24.9 °F 30.9 °F 92% 30.05 in 5.0 mi West 10.4 mph - 0.00 in Snow Light Snow
1:23 AM 33.8 °F 26.4 °F 30.2 °F 87% 30.04 in 2.5 mi WNW 9.2 mph - 0.00 in Snow Light Snow
1:40 AM 33.8 °F 27.7 °F 30.2 °F 87% 30.04 in 2.0 mi West 6.9 mph - 0.00 in Snow Light Snow
1:53 AM 33.1 °F 26.1 °F 30.9 °F 92% 30.06 in 3.0 mi WNW 8.1 mph - 0.00 in Snow Light Snow
2:24 AM 33.8 °F 27.0 °F 30.2 °F 87% 30.04 in 7.0 mi WNW 8.1 mph - 0.00 in   Overcast
2:53 AM 34.0 °F 26.0 °F 30.0 °F 85% 30.06 in 10.0 mi WNW 10.4 mph - 0.00 in   Overcast
3:53 AM 34.0 °F 28.0 °F 30.0 °F 85% 30.07 in 7.0 mi WNW 6.9 mph - 0.00 in Snow Light Snow
4:53 AM 34.0 °F 25.5 °F 28.0 °F 79% 30.08 in 10.0 mi NW 11.5 mph - 0.00 in   Overcast
5:46 AM 33.8 °F 27.0 °F 28.4 °F 81% 30.07 in 2.0 mi NW 8.1 mph - 0.00 in Snow Light Snow
5:53 AM 33.1 °F 26.1 °F 28.9 °F 85% 30.09 in 2.0 mi NW 8.1 mph - 0.00 in Snow Light Snow
6:16 AM 32.0 °F 24.2 °F 30.2 °F 93% 30.08 in 3.0 mi WNW 9.2 mph - 0.00 in Snow Light Snow
6:53 AM 33.1 °F 26.9 °F 30.0 °F 89% 30.10 in 8.0 mi WNW 6.9 mph - 0.00 in   Overcast
7:53 AM 33.1 °F 26.1 °F 28.9 °F 85% 30.12 in 2.0 mi NW 8.1 mph - 0.00 in Snow Light Snow
8:16 AM 33.8 °F 27.7 °F 28.4 °F 81% 30.12 in 1.5 mi NW 6.9 mph - 0.00 in Snow Light Snow
8:27 AM 33.8 °F 27.0 °F 28.4 °F 81% 30.12 in 3.0 mi WNW 8.1 mph - 0.00 in Snow Light Snow
8:53 AM 33.1 °F 26.9 °F 28.9 °F 85% 30.15 in 3.0 mi NW 6.9 mph - 0.00 in Snow Light Snow
9:00 AM 33.8 °F 27.0 °F 28.4 °F 81% 30.14 in 1.8 mi NW 8.1 mph - 0.00 in Snow Light Snow
9:27 AM 32.0 °F 24.8 °F 30.2 °F 93% 30.15 in 0.8 mi NW 8.1 mph - 0.01 in Snow Light Snow
9:39 AM 32.0 °F 24.2 °F 30.2 °F 93% 30.16 in 1.2 mi WNW 9.2 mph - 0.01 in Snow Light Snow
9:53 AM 33.1 °F 26.1 °F 30.0 °F 89% 30.18 in 1.2 mi WNW 8.1 mph - 0.01 in Snow Light Snow
10:07 AM 33.8 °F 26.4 °F 30.2 °F 87% 30.17 in 1.0 mi NW 9.2 mph - 0.00 in Snow Light Snow
10:26 AM 33.8 °F 26.4 °F 30.2 °F 87% 30.17 in 2.0 mi WNW 9.2 mph - 0.00 in Snow Light Snow
10:39 AM 33.8 °F 27.0 °F 30.2 °F 87% 30.17 in 1.8 mi WNW 8.1 mph - 0.00 in Snow Light Snow
10:49 AM 33.8 °F 25.8 °F 30.2 °F 87% 30.18 in 2.0 mi WNW 10.4 mph - 0.00 in Snow Light Snow
10:53 AM 34.0 °F 26.0 °F 30.0 °F 85% 30.19 in 2.5 mi WNW 10.4 mph - 0.00 in Snow Light Snow
10:57 AM 33.8 °F 27.0 °F 30.2 °F 87% 30.18 in 3.0 mi NW 8.1 mph - 0.00 in Snow Light Snow
11:07 AM 33.8 °F 25.3 °F 30.2 °F 87% 30.18 in 4.0 mi WNW 11.5 mph - 0.00 in Snow Light Snow
11:22 AM 35.6 °F 28.6 °F 30.2 °F 81% 30.19 in 6.0 mi NW 9.2 mph - 0.00 in   Overcast
11:53 AM 37.0 °F 31.0 °F 30.0 °F 76% 30.20 in 10.0 mi WNW 8.1 mph - 0.00 in   Overcast
12:53 PM 39.0 °F 34.0 °F 30.0 °F 70% 30.21 in 10.0 mi NW 6.9 mph - N/A   Overcast
1:14 PM 41.0 °F 36.4 °F 30.2 °F 65% 30.19 in 10.0 mi North 6.9 mph - N/A   Overcast
1:53 PM 39.9 °F 34.5 °F 26.1 °F 58% 30.21 in 10.0 mi NW 8.1 mph - N/A   Overcast
2:53 PM 41.0 °F 33.9 °F 23.0 °F 49% 30.21 in 10.0 mi NW 12.7 mph - N/A   Overcast
3:53 PM 41.0 °F 33.9 °F 23.0 °F 49% 30.21 in 10.0 mi WNW 12.7 mph - N/A   Overcast
4:53 PM 42.1 °F 34.9 °F 23.0 °F 47% 30.22 in 10.0 mi WNW 13.8 mph - N/A   Overcast
5:53 PM 41.0 °F 34.7 °F 23.0 °F 49% 30.23 in 10.0 mi NW 10.4 mph 19.6 mph N/A   Overcast
6:53 PM 39.9 °F 34.5 °F 23.0 °F 51% 30.25 in 10.0 mi WNW 8.1 mph - N/A   Overcast
7:53 PM 39.0 °F 31.0 °F 21.0 °F 49% 30.26 in 10.0 mi NW 13.8 mph - N/A   Overcast
8:53 PM 39.0 °F 32.8 °F 23.0 °F 53% 30.28 in 10.0 mi WNW 9.2 mph - N/A   Overcast
9:53 PM 37.9 °F 32.1 °F 25.0 °F 60% 30.30 in 10.0 mi WNW 8.1 mph - N/A   Overcast
10:53 PM 37.9 °F 30.5 °F 23.0 °F 55% 30.31 in 10.0 mi WNW 11.5 mph - N/A   Overcast
11:53 PM 37.0 °F 31.6 °F 24.1 °F 59% 30.32 in 10.0 mi WNW 6.9 mph - N/A   Overcast